| time (UTC) | temp F | wind direction | speed MPH | gust MPH | rain 1hr in | rain 24hr in | rain mn in | humidity % | barometer mb |
| 20260510151051 | 75 | 111 | 3.0 | 9.0 | 0.00 | 0.00 | 0.00 | 95 | 1015.5 |
| 20260510150552 | 75 | 76 | 4.0 | 9.0 | 0.00 | 0.00 | 0.00 | 95 | 1015.4 |
| 20260510150100 | 74 | 94 | 2.0 | 9.0 | 0.00 | 0.00 | 0.00 | 95 | 1015.4 |
| 20260510145552 | 74 | 101 | 3.0 | 9.0 | 0.00 | 0.00 | 0.00 | 95 | 1015.4 |
| 20260510145052 | 74 | 71 | 3.0 | 9.0 | 0.00 | 0.00 | 0.00 | 95 | 1015.3 |
| 20260510144604 | 74 | 86 | 4.0 | 9.0 | 0.00 | 0.00 | 0.00 | 95 | 1015.3 |
| 20260510144051 | 74 | 90 | 4.0 | 10.0 | 0.00 | 0.00 | 0.00 | 95 | 1015.3 |
| 20260510143551 | 74 | 85 | 4.0 | 10.0 | 0.00 | 0.00 | 0.00 | 95 | 1015.2 |
| 20260510143105 | 74 | 71 | 4.0 | 7.0 | 0.00 | 0.00 | 0.00 | 95 | 1015.0 |
| 20260510142554 | 74 | 83 | 3.0 | 7.0 | 0.00 | 0.00 | 0.00 | 95 | 1015.0 |
| 20260510142055 | 74 | 91 | 2.0 | 7.0 | 0.00 | 0.00 | 0.00 | 95 | 1014.9 |
| 20260510141558 | 74 | 0 | 2.0 | 4.0 | 0.00 | 0.00 | 0.00 | 95 | 1014.8 |
| 20260510141055 | 74 | 94 | 2.0 | 4.0 | 0.00 | 0.00 | 0.00 | 95 | 1014.8 |
| 20260510140555 | 74 | 110 | 1.0 | 4.0 | 0.00 | 0.00 | 0.00 | 95 | 1014.7 |
| 20260510140053 | 74 | 102 | 2.0 | 5.0 | 0.00 | 0.00 | 0.00 | 95 | 1014.6 |
| 20260510135552 | 74 | 83 | 0.0 | 6.0 | 0.00 | 0.00 | 0.00 | 95 | 1014.5 |
| 20260510135054 | 73 | 79 | 2.0 | 6.0 | 0.00 | 0.00 | 0.00 | 95 | 1014.6 |
| 20260510134557 | 73 | 90 | 2.0 | 6.0 | 0.00 | 0.00 | 0.00 | 95 | 1014.4 |
| 20260510134057 | 73 | 72 | 2.0 | 6.0 | 0.00 | 0.00 | 0.00 | 95 | 1014.5 |
| 20260510133554 | 73 | 0 | 2.0 | 6.0 | 0.00 | 0.00 | 0.00 | 95 | 1014.3 |
| 20260510133053 | 73 | 69 | 0.0 | 4.0 | 0.00 | 0.00 | 0.00 | 95 | 1014.1 |
| 20260510132556 | 73 | 90 | 1.0 | 4.0 | 0.00 | 0.00 | 0.00 | 95 | 1014.1 |
| 20260510132058 | 73 | 90 | 1.0 | 4.0 | 0.00 | 0.00 | 0.00 | 95 | 1014.1 |
| 20260510131555 | 73 | 93 | 1.0 | 3.0 | 0.00 | 0.00 | 0.00 | 95 | 1013.9 |
| 20260510131054 | 73 | 0 | 0.0 | 0.0 | 0.00 | 0.00 | 0.00 | 95 | 1013.7 |
| 20260510130558 | 73 | 0 | 0.0 | 0.0 | 0.00 | 0.00 | 0.00 | 95 | 1013.7 |
| 20260510130057 | 73 | 0 | 0.0 | 0.0 | 0.00 | 0.00 | 0.00 | 95 | 1013.6 |
| 20260510125554 | 73 | 0 | 0.0 | 0.0 | 0.00 | 0.00 | 0.00 | 95 | 1013.5 |
| 20260510125053 | 73 | 0 | 0.0 | 0.0 | 0.00 | 0.00 | 0.00 | 95 | 1013.5 |
| 20260510124601 | 72 | 0 | 0.0 | 0.0 | 0.00 | 0.00 | 0.00 | 94 | 1013.4 |
| 20260510124052 | 72 | 0 | 0.0 | 0.0 | 0.00 | 0.00 | 0.00 | 94 | 1013.4 |
| 20260510123553 | 72 | 0 | 0.0 | 0.0 | 0.00 | 0.00 | 0.00 | 94 | 1013.4 |
| 20260510123056 | 72 | 0 | 0.0 | 2.0 | 0.00 | 0.00 | 0.00 | 94 | 1013.4 |
| 20260510122552 | 72 | 0 | 0.0 | 2.0 | 0.00 | 0.00 | 0.00 | 94 | 1013.3 |
| 20260510122052 | 72 | 0 | 1.0 | 2.0 | 0.00 | 0.00 | 0.00 | 94 | 1013.0 |
| 20260510121558 | 71 | 0 | 0.0 | 1.0 | 0.00 | 0.00 | 0.00 | 94 | 1012.9 |
| 20260510121053 | 71 | 0 | 0.0 | 4.0 | 0.00 | 0.00 | 0.00 | 94 | 1012.8 |
| 20260510120551 | 71 | 0 | 0.0 | 5.0 | 0.00 | 0.00 | 0.00 | 94 | 1012.4 |
| 20260510115554 | 71 | 162 | 2.0 | 6.0 | 0.00 | 0.00 | 0.00 | 94 | 1011.9 |
| 20260510115054 | 71 | 165 | 1.0 | 6.0 | 0.00 | 0.00 | 0.00 | 94 | 1011.9 |
| 20260510114555 | 71 | 165 | 2.0 | 6.0 | 0.00 | 0.00 | 0.00 | 94 | 1011.8 |
| 20260510114053 | 71 | 176 | 3.0 | 8.0 | 0.00 | 0.00 | 0.00 | 94 | 1011.7 |
| 20260510113554 | 71 | 200 | 4.0 | 8.0 | 0.00 | 0.00 | 0.00 | 94 | 1011.7 |
| 20260510113058 | 71 | 190 | 4.0 | 7.0 | 0.00 | 0.00 | 0.00 | 94 | 1011.6 |
| 20260510112555 | 71 | 186 | 3.0 | 8.0 | 0.00 | 0.00 | 0.00 | 93 | 1011.6 |
| 20260510112054 | 71 | 185 | 3.0 | 10.0 | 0.00 | 0.00 | 0.00 | 93 | 1011.6 |
| 20260510111553 | 71 | 188 | 3.0 | 10.0 | 0.00 | 0.00 | 0.00 | 93 | 1011.6 |
| 20260510111052 | 71 | 191 | 3.0 | 7.0 | 0.00 | 0.00 | 0.00 | 93 | 1011.5 |
| 20260510110553 | 71 | 168 | 2.0 | 5.0 | 0.00 | 0.00 | 0.00 | 93 | 1011.5 |
| 20260510110056 | 70 | 176 | 2.0 | 5.0 | 0.00 | 0.00 | 0.00 | 93 | 1011.5 |
| 20260510105554 | 70 | 177 | 1.0 | 5.0 | 0.00 | 0.00 | 0.00 | 93 | 1011.4 |
| 20260510105054 | 70 | 188 | 2.0 | 5.0 | 0.00 | 0.00 | 0.00 | 93 | 1011.4 |
| 20260510104558 | 70 | 184 | 1.0 | 4.0 | 0.00 | 0.00 | 0.00 | 93 | 1011.4 |
| 20260510104054 | 70 | 186 | 0.0 | 4.0 | 0.00 | 0.00 | 0.00 | 93 | 1011.3 |
| 20260510103554 | 70 | 186 | 2.0 | 4.0 | 0.00 | 0.00 | 0.00 | 93 | 1011.3 |
| 20260510103056 | 70 | 0 | 1.0 | 5.0 | 0.00 | 0.00 | 0.00 | 93 | 1011.3 |
| 20260510102554 | 70 | 187 | 2.0 | 6.0 | 0.00 | 0.00 | 0.00 | 93 | 1011.3 |
| 20260510102054 | 70 | 188 | 3.0 | 6.0 | 0.00 | 0.00 | 0.00 | 93 | 1011.4 |
| 20260510101554 | 70 | 212 | 2.0 | 5.0 | 0.00 | 0.00 | 0.00 | 93 | 1011.5 |
| 20260510101054 | 70 | 197 | 2.0 | 6.0 | 0.00 | 0.00 | 0.00 | 93 | 1011.3 |
| 20260510100553 | 70 | 197 | 2.0 | 8.0 | 0.00 | 0.00 | 0.00 | 93 | 1011.4 |
| 20260510100109 | 70 | 182 | 2.0 | 8.0 | 0.00 | 0.00 | 0.00 | 92 | 1011.4 |
| 20260510095553 | 70 | 198 | 3.0 | 8.0 | 0.00 | 0.00 | 0.00 | 92 | 1011.4 |
| 20260510095056 | 70 | 190 | 3.0 | 7.0 | 0.00 | 0.00 | 0.00 | 92 | 1011.5 |
| 20260510094601 | 70 | 190 | 3.0 | 6.0 | 0.00 | 0.00 | 0.00 | 92 | 1011.4 |
| 20260510094058 | 70 | 195 | 3.0 | 5.0 | 0.00 | 0.00 | 0.00 | 92 | 1011.4 |
| 20260510093552 | 70 | 202 | 2.0 | 5.0 | 0.00 | 0.00 | 0.00 | 92 | 1011.4 |
| 20260510093100 | 70 | 204 | 1.0 | 4.0 | 0.00 | 0.00 | 0.00 | 92 | 1011.4 |
| 20260510092552 | 70 | 0 | 0.0 | 4.0 | 0.00 | 0.00 | 0.00 | 91 | 1011.4 |
| 20260510092052 | 70 | 0 | 0.0 | 2.0 | 0.00 | 0.00 | 0.00 | 91 | 1011.5 |
| 20260510091554 | 70 | 0 | 0.0 | 2.0 | 0.00 | 0.00 | 0.00 | 92 | 1011.5 |
| 20260510091052 | 70 | 0 | 0.0 | 2.0 | 0.00 | 0.00 | 0.00 | 92 | 1011.5 |
| 20260510090554 | 70 | 0 | 0.0 | 2.0 | 0.00 | 0.00 | 0.00 | 91 | 1011.6 |
| 20260510085554 | 70 | 0 | 0.0 | 4.0 | 0.00 | 0.00 | 0.00 | 91 | 1011.5 |
| 20260510085053 | 70 | 0 | 0.0 | 4.0 | 0.00 | 0.00 | 0.00 | 91 | 1011.5 |
| 20260510084611 | 70 | 0 | 0.0 | 3.0 | 0.00 | 0.00 | 0.00 | 91 | 1011.5 |
| 20260510084054 | 70 | 166 | 0.0 | 3.0 | 0.00 | 0.00 | 0.00 | 90 | 1011.6 |
| 20260510083554 | 70 | 0 | 0.0 | 3.0 | 0.00 | 0.00 | 0.00 | 90 | 1011.6 |
| 20260510083058 | 70 | 0 | 0.0 | 2.0 | 0.00 | 0.00 | 0.00 | 90 | 1011.6 |
| 20260510082553 | 70 | 0 | 0.0 | 3.0 | 0.00 | 0.00 | 0.00 | 90 | 1011.6 |
| 20260510082052 | 70 | 0 | 0.0 | 3.0 | 0.00 | 0.00 | 0.00 | 90 | 1011.6 |
| 20260510081557 | 70 | 0 | 0.0 | 3.0 | 0.00 | 0.00 | 0.00 | 90 | 1011.6 |
| 20260510081054 | 70 | 0 | 0.0 | 2.0 | 0.00 | 0.00 | 0.00 | 90 | 1011.5 |
| 20260510080554 | 70 | 0 | 0.0 | 2.0 | 0.00 | 0.00 | 0.00 | 90 | 1011.6 |
| 20260510080055 | 70 | 0 | 0.0 | 1.0 | 0.00 | 0.00 | 0.00 | 90 | 1011.6 |
| 20260510075554 | 70 | 0 | 0.0 | 0.0 | 0.00 | 0.00 | 0.00 | 89 | 1011.6 |
| 20260510075052 | 70 | 0 | 0.0 | 2.0 | 0.00 | 0.00 | 0.00 | 89 | 1011.5 |
| 20260510074555 | 70 | 0 | 0.0 | 2.0 | 0.00 | 0.00 | 0.00 | 89 | 1011.6 |
| 20260510074052 | 70 | 165 | 0.0 | 2.0 | 0.00 | 0.00 | 0.00 | 88 | 1011.6 |
| 20260510073552 | 71 | 0 | 0.0 | 0.0 | 0.00 | 0.00 | 0.00 | 88 | 1011.6 |
| 20260510073103 | 71 | 0 | 0.0 | 0.0 | 0.00 | 0.00 | 0.00 | 88 | 1011.7 |
| 20260510072552 | 71 | 0 | 0.0 | 0.0 | 0.00 | 0.00 | 0.00 | 88 | 1011.7 |
| 20260510072057 | 71 | 0 | 0.0 | 0.0 | 0.00 | 0.00 | 0.00 | 88 | 1011.8 |
| 20260510071554 | 71 | 0 | 0.0 | 0.0 | 0.00 | 0.00 | 0.00 | 88 | 1011.8 |
| 20260510071051 | 72 | 0 | 0.0 | 0.0 | 0.00 | 0.00 | 0.00 | 88 | 1011.7 |
| 20260510070552 | 72 | 0 | 0.0 | 0.0 | 0.00 | 0.00 | 0.00 | 88 | 1011.8 |
| 20260510070056 | 72 | 0 | 0.0 | 0.0 | 0.00 | 0.00 | 0.00 | 88 | 1011.8 |
| 20260510065554 | 72 | 0 | 0.0 | 0.0 | 0.00 | 0.00 | 0.00 | 88 | 1011.7 |
| 20260510065055 | 72 | 0 | 0.0 | 0.0 | 0.00 | 0.00 | 0.00 | 88 | 1011.8 |
| 20260510064554 | 72 | 0 | 0.0 | 1.0 | 0.00 | 0.00 | 0.00 | 88 | 1011.9 |
| 20260510064054 | 72 | 0 | 0.0 | 1.0 | 0.00 | 0.00 | 0.00 | 88 | 1011.9 |
| 20260510063554 | 72 | 0 | 0.0 | 3.0 | 0.00 | 0.00 | 0.00 | 88 | 1011.8 |
| 20260510063053 | 73 | 0 | 0.0 | 3.0 | 0.00 | 0.00 | 0.00 | 88 | 1011.8 |
| 20260510062554 | 73 | 0 | 0.0 | 4.0 | 0.00 | 0.00 | 0.00 | 88 | 1011.8 |
| 20260510062054 | 73 | 0 | 0.0 | 4.0 | 0.00 | 0.00 | 0.00 | 88 | 1011.9 |
| 20260510061556 | 73 | 178 | 0.0 | 4.0 | 0.00 | 0.00 | 0.00 | 88 | 1011.8 |
| 20260510061056 | 73 | 0 | 0.0 | 5.0 | 0.00 | 0.00 | 0.00 | 88 | 1011.8 |
| 20260510060553 | 73 | 0 | 1.0 | 6.0 | 0.00 | 0.00 | 0.00 | 88 | 1012.1 |
| 20260510060055 | 73 | 151 | 0.0 | 7.0 | 0.00 | 0.00 | 0.00 | 88 | 1012.0 |
| 20260510055552 | 73 | 173 | 1.0 | 7.0 | 0.00 | 0.00 | 0.00 | 88 | 1011.8 |
| 20260510055055 | 73 | 173 | 0.0 | 5.0 | 0.00 | 0.00 | 0.00 | 88 | 1011.9 |
| 20260510054555 | 73 | 0 | 0.0 | 3.0 | 0.00 | 0.00 | 0.00 | 88 | 1011.9 |
| 20260510054051 | 73 | 0 | 0.0 | 5.0 | 0.00 | 0.00 | 0.00 | 88 | 1011.9 |
| 20260510053551 | 73 | 146 | 1.0 | 5.0 | 0.00 | 0.00 | 0.00 | 88 | 1011.7 |
| 20260510053100 | 73 | 143 | 0.0 | 5.0 | 0.00 | 0.00 | 0.00 | 88 | 1011.8 |
| 20260510052552 | 73 | 0 | 0.0 | 7.0 | 0.00 | 0.00 | 0.00 | 88 | 1011.7 |
| 20260510052056 | 73 | 0 | 0.0 | 7.0 | 0.00 | 0.00 | 0.00 | 88 | 1011.7 |
| 20260510051556 | 73 | 124 | 1.0 | 7.0 | 0.00 | 0.00 | 0.00 | 88 | 1011.8 |
| 20260510051055 | 73 | 0 | 0.0 | 0.0 | 0.00 | 0.00 | 0.00 | 88 | 1011.7 |
| 20260510050554 | 73 | 0 | 0.0 | 0.0 | 0.00 | 0.00 | 0.00 | 88 | 1011.8 |
| 20260510050118 | 73 | 0 | 0.0 | 1.0 | 0.00 | 0.00 | 0.00 | 88 | 1011.7 |
| 20260510045554 | 72 | 0 | 0.0 | 1.0 | 0.00 | 0.00 | 0.00 | 88 | 1011.4 |
| 20260510045052 | 72 | 0 | 0.0 | 0.0 | 0.00 | 0.00 | 0.00 | 88 | 1011.4 |
| 20260510044559 | 72 | 0 | 0.0 | 0.0 | 0.00 | 0.00 | 0.00 | 88 | 1011.4 |
| 20260510044052 | 72 | 0 | 0.0 | 0.0 | 0.00 | 0.00 | 0.00 | 88 | 1011.4 |
| 20260510043554 | 72 | 0 | 0.0 | 0.0 | 0.00 | 0.00 | 0.00 | 87 | 1011.5 |
| 20260510043111 | 72 | 0 | 0.0 | 0.0 | 0.00 | 0.00 | 0.00 | 87 | 1011.5 |
| 20260510042551 | 72 | 0 | 0.0 | 0.0 | 0.00 | 0.00 | 0.00 | 86 | 1011.4 |
| 20260510042051 | 72 | 0 | 0.0 | 0.0 | 0.00 | 0.00 | 0.00 | 86 | 1011.3 |
| 20260510041554 | 72 | 0 | 0.0 | 0.0 | 0.00 | 0.00 | 0.00 | 86 | 1011.2 |
| 20260510041052 | 72 | 0 | 0.0 | 0.0 | 0.00 | 0.00 | 0.00 | 86 | 1011.3 |
| 20260510040552 | 72 | 0 | 0.0 | 0.0 | 0.00 | 0.00 | 0.00 | 86 | 1011.3 |
| 20260510040100 | 72 | 0 | 0.0 | 0.0 | 0.00 | 0.00 | 0.00 | 85 | 1011.2 |
| 20260510035551 | 73 | 0 | 0.0 | 0.0 | 0.00 | 0.00 | 0.00 | 85 | 1011.2 |
| 20260510035051 | 73 | 0 | 0.0 | 0.0 | 0.00 | 0.00 | 0.00 | 85 | 1011.1 |
| 20260510034559 | 73 | 0 | 0.0 | 0.0 | 0.00 | 0.00 | 0.00 | 85 | 1011.0 |
| 20260510034055 | 73 | 0 | 0.0 | 0.0 | 0.00 | 0.00 | 0.00 | 84 | 1010.9 |
| 20260510033554 | 73 | 0 | 0.0 | 0.0 | 0.00 | 0.00 | 0.00 | 84 | 1010.8 |
| 20260510033126 | 73 | 0 | 0.0 | 0.0 | 0.00 | 0.00 | 0.00 | 84 | 1010.8 |
| 20260510032553 | 73 | 0 | 0.0 | 0.0 | 0.00 | 0.00 | 0.00 | 84 | 1010.8 |
| 20260510032053 | 73 | 0 | 0.0 | 0.0 | 0.00 | 0.00 | 0.00 | 84 | 1010.7 |
| 20260510031623 | 73 | 0 | 0.0 | 0.0 | 0.00 | 0.00 | 0.00 | 84 | 1010.7 |
| 20260510031053 | 73 | 0 | 0.0 | 0.0 | 0.00 | 0.00 | 0.00 | 84 | 1010.6 |
| 20260510030553 | 73 | 0 | 0.0 | 0.0 | 0.00 | 0.00 | 0.00 | 83 | 1010.8 |
| 20260510030105 | 73 | 0 | 0.0 | 0.0 | 0.00 | 0.00 | 0.00 | 83 | 1010.6 |
| 20260510025553 | 74 | 0 | 0.0 | 0.0 | 0.00 | 0.00 | 0.00 | 83 | 1010.7 |
| 20260510025053 | 74 | 0 | 0.0 | 0.0 | 0.00 | 0.00 | 0.00 | 83 | 1010.7 |
| 20260510024556 | 74 | 0 | 0.0 | 0.0 | 0.00 | 0.00 | 0.00 | 83 | 1010.6 |
| 20260510024056 | 74 | 0 | 0.0 | 0.0 | 0.00 | 0.00 | 0.00 | 83 | 1010.6 |
| 20260510023553 | 74 | 0 | 0.0 | 0.0 | 0.00 | 0.00 | 0.00 | 82 | 1010.5 |
| 20260510023057 | 74 | 0 | 0.0 | 0.0 | 0.00 | 0.00 | 0.00 | 81 | 1010.3 |
| 20260510022554 | 75 | 0 | 0.0 | 0.0 | 0.00 | 0.00 | 0.00 | 81 | 1010.1 |
| 20260510022056 | 75 | 0 | 0.0 | 0.0 | 0.00 | 0.00 | 0.00 | 81 | 1010.2 |
| 20260510021600 | 75 | 0 | 0.0 | 0.0 | 0.00 | 0.00 | 0.00 | 81 | 1010.1 |
| 20260510021053 | 75 | 0 | 0.0 | 0.0 | 0.00 | 0.00 | 0.00 | 80 | 1010.1 |
| 20260510020554 | 76 | 0 | 0.0 | 0.0 | 0.00 | 0.00 | 0.00 | 79 | 1010.0 |
| 20260510020056 | 76 | 0 | 0.0 | 0.0 | 0.00 | 0.00 | 0.00 | 79 | 1010.0 |
| 20260510015553 | 76 | 0 | 0.0 | 0.0 | 0.00 | 0.00 | 0.00 | 79 | 1009.9 |
| 20260510015053 | 76 | 0 | 0.0 | 0.0 | 0.00 | 0.00 | 0.00 | 78 | 1009.7 |
| 20260510014557 | 77 | 0 | 0.0 | 0.0 | 0.00 | 0.00 | 0.00 | 78 | 1009.6 |
| 20260510014053 | 77 | 0 | 0.0 | 0.0 | 0.00 | 0.00 | 0.00 | 78 | 1009.5 |
| 20260510013553 | 77 | 0 | 0.0 | 0.0 | 0.00 | 0.00 | 0.00 | 77 | 1009.3 |
| 20260510013055 | 78 | 0 | 0.0 | 0.0 | 0.00 | 0.00 | 0.00 | 76 | 1009.2 |
| 20260510012558 | 78 | 0 | 0.0 | 0.0 | 0.00 | 0.00 | 0.00 | 76 | 1009.1 |
| 20260510012054 | 79 | 0 | 0.0 | 0.0 | 0.00 | 0.00 | 0.00 | 75 | 1009.1 |
| 20260510011602 | 79 | 0 | 0.0 | 0.0 | 0.00 | 0.00 | 0.00 | 74 | 1008.9 |
| 20260510011053 | 79 | 0 | 0.0 | 0.0 | 0.00 | 0.00 | 0.00 | 74 | 1008.9 |
| 20260510010553 | 79 | 0 | 0.0 | 0.0 | 0.00 | 0.00 | 0.00 | 74 | 1009.1 |
| 20260510010112 | 80 | 0 | 0.0 | 0.0 | 0.00 | 0.00 | 0.00 | 73 | 1009.1 |
| 20260510005554 | 80 | 0 | 0.0 | 0.0 | 0.00 | 0.00 | 0.00 | 72 | 1009.0 |
| 20260510005053 | 80 | 0 | 0.0 | 0.0 | 0.00 | 0.00 | 0.00 | 71 | 1009.1 |
| 20260510004559 | 81 | 0 | 0.0 | 0.0 | 0.00 | 0.00 | 0.00 | 71 | 1009.1 |
| 20260510004053 | 81 | 0 | 0.0 | 4.0 | 0.00 | 0.00 | 0.00 | 70 | 1009.3 |
| 20260510003553 | 81 | 0 | 0.0 | 5.0 | 0.00 | 0.00 | 0.00 | 71 | 1009.1 |
| 20260510003057 | 81 | 256 | 1.0 | 5.0 | 0.00 | 0.00 | 0.00 | 70 | 1009.0 |
| 20260510002553 | 81 | 257 | 2.0 | 5.0 | 0.00 | 0.00 | 0.00 | 69 | 1009.0 |
| 20260510002053 | 80 | 0 | 0.0 | 0.0 | 0.00 | 0.00 | 0.00 | 69 | 1009.2 |
| 20260510001557 | 80 | 0 | 0.0 | 0.0 | 0.00 | 0.00 | 0.00 | 68 | 1009.1 |
| 20260510001053 | 80 | 0 | 0.0 | 0.0 | 0.00 | 0.00 | 0.00 | 69 | 1009.1 |
| 20260510000553 | 80 | 0 | 0.0 | 0.0 | 0.00 | 0.00 | 0.00 | 69 | 1009.1 |
| 20260510000106 | 80 | 0 | 0.0 | 0.0 | 0.00 | 0.00 | 0.00 | 69 | 1009.2 |
| 20260509235553 | 80 | 0 | 0.0 | 3.0 | 0.00 | 0.00 | 0.00 | 69 | 1008.9 |
| 20260509235053 | 80 | 0 | 0.0 | 3.0 | 0.00 | 0.00 | 0.00 | 68 | 1009.3 |
| 20260509234559 | 80 | 0 | 1.0 | 3.0 | 0.00 | 0.00 | 0.00 | 67 | 1008.8 |
| 20260509234055 | 80 | 0 | 0.0 | 4.0 | 0.00 | 0.00 | 0.00 | 66 | 1009.1 |
| 20260509233552 | 80 | 68 | 1.0 | 7.0 | 0.00 | 0.00 | 0.00 | 66 | 1008.7 |
| 20260509233052 | 80 | 64 | 1.0 | 7.0 | 0.00 | 0.00 | 0.00 | 66 | 1008.8 |
| 20260509232554 | 81 | 91 | 2.0 | 5.0 | 0.00 | 0.00 | 0.00 | 65 | 1009.0 |
| 20260509232054 | 81 | 61 | 2.0 | 4.0 | 0.00 | 0.00 | 0.00 | 65 | 1009.2 |
| 20260509231557 | 82 | 63 | 2.0 | 5.0 | 0.00 | 0.00 | 0.00 | 65 | 1008.8 |
| 20260509231053 | 82 | 80 | 2.0 | 9.0 | 0.00 | 0.00 | 0.00 | 65 | 1008.9 |
| 20260509230553 | 82 | 35 | 3.0 | 9.0 | 0.00 | 0.00 | 0.00 | 64 | 1009.0 |
| 20260509230053 | 83 | 15 | 2.0 | 9.0 | 0.00 | 0.00 | 0.00 | 65 | 1009.3 |
| 20260509225554 | 84 | 65 | 2.0 | 11.0 | 0.00 | 0.00 | 0.00 | 65 | 1009.3 |
| 20260509225053 | 85 | 59 | 4.0 | 11.0 | 0.00 | 0.00 | 0.00 | 63 | 1008.9 |
| 20260509224556 | 86 | 32 | 3.0 | 10.0 | 0.00 | 0.00 | 0.00 | 62 | 1008.9 |
| 20260509224056 | 88 | 23 | 3.0 | 13.0 | 0.00 | 0.00 | 0.00 | 60 | 1008.9 |
| 20260509223553 | 90 | 81 | 4.0 | 13.0 | 0.00 | 0.00 | 0.00 | 59 | 1008.9 |
| 20260509223101 | 91 | 16 | 4.0 | 12.0 | 0.00 | 0.00 | 0.00 | 57 | 1008.7 |
| 20260509222552 | 92 | 0 | 0.0 | 5.0 | 0.00 | 0.00 | 0.00 | 55 | 1008.5 |
| 20260509222053 | 92 | 159 | 1.0 | 5.0 | 0.00 | 0.00 | 0.00 | 55 | 1008.3 |
| 20260509221552 | 92 | 0 | 0.0 | 5.0 | 0.00 | 0.00 | 0.00 | 55 | 1008.3 |
| 20260509221053 | 92 | 156 | 0.0 | 5.0 | 0.00 | 0.00 | 0.00 | 55 | 1008.3 |
| 20260509220554 | 92 | 202 | 2.0 | 8.0 | 0.00 | 0.00 | 0.00 | 56 | 1008.1 |
| 20260509220057 | 92 | 226 | 4.0 | 8.0 | 0.00 | 0.00 | 0.00 | 57 | 1007.9 |
| 20260509215554 | 92 | 153 | 1.0 | 8.0 | 0.00 | 0.00 | 0.00 | 57 | 1008.0 |
| 20260509215054 | 92 | 0 | 2.0 | 8.0 | 0.00 | 0.00 | 0.00 | 58 | 1007.8 |
| 20260509214552 | 92 | 216 | 4.0 | 8.0 | 0.00 | 0.00 | 0.00 | 57 | 1008.0 |
| 20260509214053 | 92 | 227 | 1.0 | 5.0 | 0.00 | 0.00 | 0.00 | 57 | 1008.2 |
| 20260509213553 | 91 | 214 | 0.0 | 6.0 | 0.00 | 0.00 | 0.00 | 59 | 1008.2 |
| 20260509213055 | 91 | 0 | 0.0 | 6.0 | 0.00 | 0.00 | 0.00 | 58 | 1008.4 |
| 20260509212553 | 91 | 247 | 2.0 | 6.0 | 0.00 | 0.00 | 0.00 | 59 | 1008.3 |
| 20260509212053 | 91 | 198 | 2.0 | 6.0 | 0.00 | 0.00 | 0.00 | 58 | 1008.5 |
| 20260509211601 | 91 | 221 | 2.0 | 8.0 | 0.00 | 0.00 | 0.00 | 60 | 1008.5 |
| 20260509211053 | 91 | 198 | 3.0 | 8.0 | 0.00 | 0.00 | 0.00 | 59 | 1008.5 |
| 20260509210556 | 92 | 260 | 3.0 | 8.0 | 0.00 | 0.00 | 0.00 | 60 | 1008.6 |
| 20260509210107 | 91 | 251 | 2.0 | 8.0 | 0.00 | 0.00 | 0.00 | 61 | 1008.7 |
| 20260509205552 | 91 | 232 | 2.0 | 5.0 | 0.00 | 0.00 | 0.00 | 61 | 1008.9 |
| 20260509205054 | 91 | 226 | 1.0 | 8.0 | 0.00 | 0.00 | 0.00 | 63 | 1008.9 |
| 20260509204601 | 90 | 254 | 1.0 | 8.0 | 0.00 | 0.00 | 0.00 | 61 | 1008.9 |
| 20260509204053 | 90 | 249 | 0.0 | 4.0 | 0.00 | 0.00 | 0.00 | 63 | 1009.0 |
| 20260509203553 | 90 | 89 | 0.0 | 6.0 | 0.00 | 0.00 | 0.00 | 63 | 1009.1 |
| 20260509203059 | 90 | 360 | 1.0 | 7.0 | 0.00 | 0.00 | 0.00 | 64 | 1009.2 |
| 20260509202552 | 90 | 275 | 2.0 | 7.0 | 0.00 | 0.00 | 0.00 | 62 | 1009.3 |
| 20260509202054 | 90 | 268 | 2.0 | 6.0 | 0.00 | 0.00 | 0.00 | 61 | 1009.3 |
| 20260509201609 | 90 | 288 | 3.0 | 8.0 | 0.00 | 0.00 | 0.00 | 61 | 1009.2 |
| 20260509201055 | 90 | 0 | 3.0 | 8.0 | 0.00 | 0.00 | 0.00 | 62 | 1009.2 |
| 20260509200553 | 90 | 0 | 2.0 | 6.0 | 0.00 | 0.00 | 0.00 | 61 | 1009.2 |
| 20260509200107 | 90 | 360 | 2.0 | 10.0 | 0.00 | 0.00 | 0.00 | 62 | 1009.3 |
| 20260509195556 | 90 | 266 | 1.0 | 10.0 | 0.00 | 0.00 | 0.00 | 61 | 1009.3 |
| 20260509195057 | 90 | 273 | 1.0 | 8.0 | 0.00 | 0.00 | 0.00 | 62 | 1009.4 |
| 20260509194605 | 90 | 277 | 3.0 | 9.0 | 0.00 | 0.00 | 0.00 | 65 | 1009.4 |
| 20260509194053 | 90 | 287 | 6.0 | 9.0 | 0.00 | 0.00 | 0.00 | 66 | 1009.4 |
| 20260509193553 | 90 | 259 | 2.0 | 9.0 | 0.00 | 0.00 | 0.00 | 65 | 1009.4 |
| 20260509193127 | 90 | 0 | 3.0 | 9.0 | 0.00 | 0.00 | 0.00 | 66 | 1009.4 |
| 20260509192555 | 89 | 300 | 1.0 | 11.0 | 0.00 | 0.00 | 0.00 | 67 | 1009.5 |
| 20260509192053 | 89 | 327 | 1.0 | 11.0 | 0.00 | 0.00 | 0.00 | 66 | 1009.5 |
| 20260509191601 | 89 | 250 | 6.0 | 11.0 | 0.00 | 0.00 | 0.00 | 67 | 1009.5 |
| 20260509191052 | 89 | 251 | 3.0 | 9.0 | 0.00 | 0.00 | 0.00 | 66 | 1009.7 |
| 20260509190552 | 89 | 265 | 3.0 | 9.0 | 0.00 | 0.00 | 0.00 | 68 | 1009.8 |
| 20260509190057 | 89 | 245 | 4.0 | 9.0 | 0.00 | 0.00 | 0.00 | 68 | 1009.9 |
| 20260509185554 | 88 | 257 | 2.0 | 9.0 | 0.00 | 0.00 | 0.00 | 70 | 1009.9 |
| 20260509185053 | 88 | 259 | 3.0 | 10.0 | 0.00 | 0.00 | 0.00 | 67 | 1010.0 |
| 20260509184608 | 88 | 267 | 4.0 | 10.0 | 0.00 | 0.00 | 0.00 | 69 | 1010.0 |
| 20260509184052 | 88 | 254 | 5.0 | 10.0 | 0.00 | 0.00 | 0.00 | 68 | 1010.0 |
| 20260509183553 | 88 | 224 | 5.0 | 10.0 | 0.00 | 0.00 | 0.00 | 68 | 1010.1 |
| 20260509183059 | 88 | 248 | 2.0 | 10.0 | 0.00 | 0.00 | 0.00 | 67 | 1010.2 |
| 20260509182555 | 88 | 263 | 5.0 | 9.0 | 0.00 | 0.00 | 0.00 | 69 | 1010.3 |
| 20260509182054 | 88 | 227 | 3.0 | 9.0 | 0.00 | 0.00 | 0.00 | 71 | 1010.3 |
| 20260509181621 | 87 | 198 | 2.0 | 9.0 | 0.00 | 0.00 | 0.00 | 70 | 1010.4 |
| 20260509181053 | 87 | 209 | 3.0 | 9.0 | 0.00 | 0.00 | 0.00 | 70 | 1010.6 |
| 20260509180555 | 87 | 231 | 3.0 | 8.0 | 0.00 | 0.00 | 0.00 | 71 | 1010.7 |
| 20260509175553 | 86 | 182 | 1.0 | 6.0 | 0.00 | 0.00 | 0.00 | 75 | 1010.8 |
| 20260509175053 | 86 | 179 | 3.0 | 6.0 | 0.00 | 0.00 | 0.00 | 75 | 1010.8 |
| 20260509174559 | 86 | 140 | 2.0 | 8.0 | 0.00 | 0.00 | 0.00 | 74 | 1010.8 |
| 20260509174055 | 85 | 179 | 3.0 | 8.0 | 0.00 | 0.00 | 0.00 | 75 | 1010.9 |
| 20260509173552 | 85 | 0 | 3.0 | 7.0 | 0.00 | 0.00 | 0.00 | 74 | 1011.0 |
| 20260509173103 | 85 | 266 | 2.0 | 7.0 | 0.00 | 0.00 | 0.00 | 75 | 1011.0 |
| 20260509172553 | 85 | 0 | 4.0 | 7.0 | 0.00 | 0.00 | 0.00 | 76 | 1011.1 |
| 20260509172055 | 84 | 258 | 0.0 | 0.0 | 0.00 | 0.00 | 0.00 | 78 | 1011.2 |
| 20260509171556 | 84 | 0 | 0.0 | 0.0 | 0.00 | 0.00 | 0.00 | 79 | 1011.3 |
| 20260509171052 | 83 | 0 | 0.0 | 2.0 | 0.00 | 0.00 | 0.00 | 80 | 1011.4 |
| 20260509170553 | 83 | 0 | 0.0 | 2.0 | 0.00 | 0.00 | 0.00 | 79 | 1011.3 |
| 20260509170055 | 83 | 0 | 0.0 | 4.0 | 0.00 | 0.00 | 0.00 | 79 | 1011.3 |
| 20260509165553 | 83 | 0 | 0.0 | 4.0 | 0.00 | 0.00 | 0.00 | 79 | 1011.3 |
| 20260509165056 | 83 | 191 | 1.0 | 4.0 | 0.00 | 0.00 | 0.00 | 80 | 1011.3 |
| 20260509164553 | 83 | 0 | 0.0 | 0.0 | 0.00 | 0.00 | 0.00 | 80 | 1011.4 |
| 20260509164052 | 83 | 0 | 0.0 | 3.0 | 0.00 | 0.00 | 0.00 | 80 | 1011.4 |
| 20260509163553 | 83 | 0 | 0.0 | 3.0 | 0.00 | 0.00 | 0.00 | 80 | 1011.3 |
| 20260509163054 | 83 | 0 | 1.0 | 3.0 | 0.00 | 0.00 | 0.00 | 81 | 1011.3 |
| 20260509162557 | 82 | 0 | 0.0 | 4.0 | 0.00 | 0.00 | 0.00 | 80 | 1011.1 |
| 20260509162055 | 82 | 0 | 0.0 | 4.0 | 0.00 | 0.00 | 0.00 | 81 | 1011.2 |
| 20260509161557 | 82 | 336 | 0.0 | 4.0 | 0.00 | 0.00 | 0.00 | 82 | 1011.0 |
| 20260509161052 | 82 | 0 | 1.0 | 4.0 | 0.00 | 0.00 | 0.00 | 81 | 1010.9 |
| 20260509160555 | 82 | 251 | 0.0 | 5.0 | 0.00 | 0.00 | 0.00 | 82 | 1010.9 |
| 20260509160055 | 81 | 0 | 0.0 | 5.0 | 0.00 | 0.00 | 0.00 | 83 | 1010.9 |
| 20260509155553 | 81 | 250 | 0.0 | 4.0 | 0.00 | 0.00 | 0.00 | 84 | 1011.0 |
| 20260509155052 | 81 | 0 | 0.0 | 3.0 | 0.00 | 0.00 | 0.00 | 84 | 1011.1 |
| 20260509154559 | 81 | 0 | 0.0 | 3.0 | 0.00 | 0.00 | 0.00 | 84 | 1011.1 |
| 20260509154053 | 81 | 0 | 0.0 | 1.0 | 0.00 | 0.00 | 0.00 | 84 | 1011.1 |
| 20260509153553 | 80 | 0 | 0.0 | 3.0 | 0.00 | 0.00 | 0.00 | 85 | 1011.2 |
| 20260509153059 | 80 | 0 | 0.0 | 4.0 | 0.00 | 0.00 | 0.00 | 85 | 1011.1 |
| 20260509152553 | 80 | 0 | 2.0 | 4.0 | 0.00 | 0.00 | 0.00 | 86 | 1010.9 |
| 20260509152056 | 80 | 0 | 0.0 | 4.0 | 0.00 | 0.00 | 0.00 | 87 | 1011.1 |
| 20260509151605 | 80 | 0 | 1.0 | 8.0 | 0.00 | 0.00 | 0.00 | 88 | 1011.0 |